Regional Weather Roundup
Issued by NWS Green Bay, WI

Home | Current Version | Previous Version | Text Only | Print | Product List | Glossary On
Versions: 1 2 3 4 5 6 7 8 9 10 11 12 13 14 15 16 17 18 19 20 21 22 23 24 25 26 27 28 29 30 31 32 33 34 35 36 37 38 39 40 41 42 43 44 45 46 47 48 49 50
000
ASUS43 KGRB 070911
RWRGRB

NORTH-CENTRAL AND NORTHEAST WISCONSIN REGIONAL WEATHER ROUNDUP
NATIONAL WEATHER SERVICE GREEN BAY WI
300 AM CST WED DEC 07 2016

WIZ005-009-010>012-018-019-071000-
NORTH CENTRAL WISCONSIN

CITY           SKY/WX    TMP DP  RH WIND       PRES   REMARKS
IRONWOOD       FLURRIES  19  14  81 SW21G29   29.64R WCI   3
MANITOWISH WTR FLURRIES  17  13  83 SW13G23   29.65S WCI   4
ARBOR VITAE    FLURRIES  19  14  80 SW13G23   29.67S WCI   6
EAGLE RIVER    LGT SNOW  18  12  76 SW20G26   29.65S WCI   2
LAND O LAKES   FLURRIES  19  13  79 W15G21    29.66R WCI   5
RHINELANDER    LGT SNOW  18  13  80 SW13G28   29.70R WCI   5
PHILLIPS       LGT SNOW  17  14  88 SW13      29.70S WCI   3
ANTIGO         LGT SNOW  17  13  83 W23G32    29.74S WCI  -1
TOMAHAWK       LGT SNOW  17  11  80 SW8       29.73S WCI   6
MERRILL        LGT SNOW  17  12  79 W17G23    29.77S WCI   2
$$

WIZ013-073-071000-
NORTHEAST WISCONSIN

CITY           SKY/WX    TMP DP  RH WIND       PRES   REMARKS
IRON MOUNTAIN  CLOUDY    22  12  65 W16G26    29.68R WCI   8
MARINETTE      CLOUDY    26  16  65 W14G23    29.77S
OCONTO         CLOUDY    26  15  64 W15G25    29.80R
$$

WIZ017-030-035>037-045-071000-
CENTRAL WISCONSIN

CITY           SKY/WX    TMP DP  RH WIND       PRES   REMARKS
MEDFORD        FLURRIES  15  10  78 W15G23    29.76S WCI   0
WAUSAU         LGT SNOW  18  12  77 W14       29.79R WCI   4
MOSINEE        FLURRIES  19  16  86 SW20G26   29.80S WCI   4
MARSHFIELD     CLOUDY    18  11  74 W16G23    29.80R WCI   3
WISC RAPIDS    CLOUDY    20  14  77 SW17G23   29.87R WCI   5
STEVENS POINT  CLOUDY    18  11  74 SW17G24   29.83S WCI   3
WAUPACA        PTCLDY    23  15  69 W16G25    29.86R
SHAWANO        CLOUDY    26  17  68 SW15G21   29.81S
CLINTONVILLE   CLOUDY    25  16  68 W12G22    29.83R
WAUTOMA        PTCLDY    20  14  77 W14       29.89R WCI   7
$$

WIZ038-039-048-051-071000-
FOX VALLEY

CITY           SKY/WX    TMP DP  RH WIND       PRES   REMARKS
NWS GREEN BAY  FLURRIES  26  17  68 W17G30    29.83R
APPLETON       MOCLDY    23  14  68 W18       29.83R WCI   9
OSHKOSH        CLEAR     23  14  68 W12G23    29.86R
FOND DU LAC    CLEAR     24  14  65 SW13G21   29.88R
$$

WIZ022-050-052-071000-
EAST CENTRAL WISCONSIN

CITY           SKY/WX    TMP DP  RH WIND       PRES   REMARKS
EPHRAIM        CLOUDY    27  17  66 W17G29    29.75S
WASHINGTON ISL CLOUDY    28  18  66 W15G31    29.75S
STURGEON BAY   CLOUDY    27  17  66 W22       29.79R
MANITOWOC      PTCLDY    26  17  68 W14G25    29.83F
SHEBOYGAN      CLEAR     24  16  71 W14       29.86S
$$

LMZ563-521-522-541>543-071000-
LAKESHORE

STATION/POSITION TIME  TEMP    WIND        PRES    VSBY  WAVE
                       AIR SEA DIR/SP/G                  HT/PER
                 (UTC) (F)     (DEG/KT/KT) (MB)    (MI)  (FT/S)
SHEBOYGAN LKSHOR 0900   26     240/ 16/ 21 1012.1R
KEWAUNEE LKSHORE 0842   27     280/ 16/ 22 1009.3S
NORTHPORT PIER   0842   28     250/  7/ 16 1007.8S
SISTER BAY LKSHO 0853   31     280/ 25/ 30   N/A
CHAMBERS ISLAND  0840   28     220/ 12/ 21 1007.5S
MENOMINEE LKSHOR 0836   27     240/ 14/ 23 1007.4S
$$




USA.gov is the U.S. government's official web portal to all federal, state and local government web resources and services.